ROMMA est une association bénévole à but non lucratif. Votre soutien est indispensable : ADHERER à ROMMA ou FAIRE un DON

Engins - (38, Isère)

Vercors (906 m)   Longitude: 05° 37' E   Latitude: 45° 11' N Station partenaire n°139
 

Détail journalier du     <<     >>

Température Precipitation Humidité Vent Dir Rafale Dir. rafale Ensol.
Heure (°C) (mm) (%) (km/h) (km/h) (min)
01:00 17.805330S92SSO0
02:00 17.805234S76S0
03:00 17.105227S68SSO0
04:00 17.305026S64SSE0
05:00 17.305422SSO52O0
06:00 17.405523SSO63S0
07:00 17.505622SSO55OSO0
08:00 17.505718S66SSO0
09:00 17.905523SSO63SO5
10:00 18.605024S58S0
11:00 19.105032SSO81SSE50
12:00 20.004726SSO71OSO35
13:00 20.404528S76SSE45
14:00 21.004431S74S40
15:00 21.004434SSO82SSO35
16:00 21.104530SSO71OSO5
17:00 20.604632SSO79SSO5
18:00 20.304633SSO68SSE20
19:00 19.305029SSO84SSO15
20:00 17.905930S79SSE0
21:00 17.606127S87SSO0
22:00 14.22.28219SSO53SSO0
23:00 14.81.67716S58SSO0
minuit 13.06.89111O39SSE0

Graphique du 20-10-2019

 

Serveur OMMA